GEFSNE_prec_meanprecacc_198.txt.gz
Total_Precipitation_Accumulation
1.13 1.24 1.17 0.98 0.95 0.92 1.11 1.39 1.55 1.41 1.28 1.19 1.20 1.22 1.20 1.24 1.38 1.27 1.33 1.35 1.24 1.13 1.03 0.96 0.94 0.91 0.92 0.99 1.06 1.08 1.09 1.17 1.34 1.53 1.74 1.98 2.26 2.54
1.30 1.29 1.22 1.11 1.15 1.01 1.06 1.28 1.49 1.63 1.53 1.16 1.20 1.21 1.29 1.18 1.37 1.28 1.32 1.37 1.23 1.13 1.03 0.98 0.95 0.92 0.91 0.92 0.97 1.04 1.05 1.04 1.09 1.18 1.27 1.39 1.50 1.67
1.50 1.42 1.37 1.36 1.35 1.23 1.25 1.32 1.40 1.59 1.61 1.34 1.28 1.40 1.47 1.40 1.43 1.39 1.31 1.34 1.26 1.20 1.05 0.98 0.94 0.91 0.93 0.91 0.91 0.92 0.96 0.98 1.00 1.04 1.09 1.14 1.13 1.14
1.88 1.92 1.71 1.62 1.59 1.45 1.43 1.39 1.40 1.53 1.61 1.56 1.47 1.53 1.54 1.51 1.49 1.32 1.12 1.07 1.13 1.24 1.16 1.05 0.99 0.93 0.89 0.88 0.88 0.88 0.89 0.91 0.95 0.95 0.96 0.99 1.01 1.00
1.74 1.93 1.93 1.96 1.78 1.71 1.62 1.53 1.49 1.45 1.57 1.57 1.50 1.64 1.67 1.66 1.54 1.24 1.14 1.17 1.05 1.20 1.19 1.02 0.92 0.89 0.85 0.81 0.79 0.81 0.81 0.82 0.85 0.87 0.86 0.83 0.83 0.83
1.56 1.62 1.73 1.95 1.93 1.88 1.76 1.71 1.70 1.70 1.73 1.70 1.65 1.75 1.92 1.98 1.78 1.44 1.29 1.24 1.14 1.00 1.05 0.95 0.90 0.87 0.83 0.78 0.75 0.73 0.74 0.77 0.79 0.80 0.81 0.81 0.77 0.74
1.59 1.52 1.50 1.68 1.76 1.77 1.62 1.65 1.76 1.82 1.85 1.84 1.81 1.88 1.97 2.07 1.80 1.54 1.35 1.28 1.21 1.06 0.97 0.86 0.84 0.82 0.87 0.90 0.86 0.78 0.74 0.74 0.76 0.78 0.78 0.77 0.76 0.75
1.84 1.76 1.63 1.52 1.52 1.56 1.61 1.65 1.69 1.71 1.77 1.82 1.78 1.82 1.89 1.95 2.00 1.80 1.54 1.34 1.22 1.10 1.06 0.96 0.91 0.88 0.81 0.77 0.86 0.83 0.76 0.73 0.72 0.72 0.72 0.75 0.73 0.69
1.82 1.80 1.60 1.45 1.51 1.46 1.61 1.65 1.57 1.52 1.48 1.53 1.59 1.66 1.97 2.17 2.33 2.08 1.82 1.64 1.43 1.28 1.18 1.02 0.94 0.88 0.79 0.77 0.87 0.76 0.70 0.67 0.65 0.65 0.65 0.65 0.68 0.69
1.45 1.56 1.53 1.43 1.42 1.45 1.38 1.26 1.20 1.21 1.19 1.13 1.19 1.39 1.69 2.12 2.36 2.36 2.28 2.06 1.82 1.48 1.23 1.06 0.89 0.83 0.78 0.74 0.83 0.79 0.72 0.68 0.64 0.61 0.57 0.55 0.58 0.63
1.24 1.24 1.24 1.17 1.23 1.22 1.13 1.01 0.95 0.95 0.96 0.97 0.99 1.15 1.38 1.67 2.02 2.17 2.12 1.91 1.64 1.32 1.10 0.96 0.85 0.83 0.77 0.71 0.73 0.83 0.77 0.72 0.70 0.69 0.68 0.64 0.63 0.68
1.23 1.26 1.35 1.19 1.08 0.94 0.90 0.91 0.82 0.78 0.82 0.82 0.83 0.89 1.01 1.22 1.60 1.72 1.71 1.70 1.52 1.28 1.02 0.94 0.86 0.93 0.88 0.76 0.69 0.70 0.71 0.78 0.79 0.78 0.77 0.77 0.81 0.74
1.00 1.00 1.11 1.12 0.93 0.78 0.78 0.77 0.72 0.69 0.71 0.70 0.70 0.74 0.85 1.00 1.17 1.43 1.52 1.45 1.35 1.14 0.94 0.95 0.88 0.88 0.87 0.75 0.69 0.66 0.63 0.62 0.68 0.76 0.83 0.85 0.87 0.81
0.98 0.99 1.09 1.12 0.90 0.76 0.66 0.62 0.58 0.52 0.56 0.65 0.65 0.66 0.74 0.85 1.04 1.26 1.46 1.46 1.34 1.22 1.15 1.13 1.05 0.98 0.91 0.79 0.67 0.61 0.63 0.63 0.66 0.69 0.73 0.88 0.87 0.87
1.04 1.24 1.24 1.16 0.98 0.80 0.73 0.71 0.60 0.51 0.57 0.63 0.65 0.63 0.67 0.79 1.03 1.28 1.48 1.59 1.51 1.35 1.25 1.17 1.12 1.08 1.08 0.91 0.76 0.69 0.69 0.70 0.67 0.68 0.70 0.74 0.76 0.80
1.05 1.22 1.30 1.31 1.21 1.05 0.96 0.87 0.70 0.66 0.70 0.72 0.75 0.79 0.84 0.94 1.10 1.21 1.35 1.49 1.53 1.39 1.25 1.19 1.16 1.20 1.17 1.04 0.91 0.80 0.73 0.71 0.69 0.71 0.74 0.75 0.75 0.75
0.99 1.20 1.36 1.46 1.48 1.43 1.29 1.16 1.03 0.91 0.83 0.84 0.90 0.90 0.92 0.98 1.06 1.19 1.33 1.38 1.35 1.19 1.11 1.12 1.15 1.19 1.19 1.12 0.95 0.74 0.67 0.62 0.61 0.72 0.83 0.84 0.80 0.78
0.89 1.09 1.32 1.50 1.56 1.64 1.61 1.50 1.30 1.13 1.05 1.03 1.00 0.99 1.00 0.98 1.03 1.16 1.32 1.39 1.30 1.16 1.07 1.02 1.13 1.24 1.23 1.08 0.91 0.74 0.65 0.62 0.61 0.70 0.80 0.83 0.72 0.64
0.83 0.96 1.07 1.21 1.38 1.55 1.62 1.60 1.44 1.30 1.30 1.27 1.17 1.12 1.14 1.13 1.12 1.20 1.33 1.41 1.40 1.28 1.19 1.13 1.15 1.19 1.13 0.90 0.68 0.63 0.65 0.62 0.64 0.66 0.68 0.71 0.64 0.57
0.71 0.80 0.89 1.00 1.18 1.42 1.57 1.62 1.57 1.46 1.44 1.45 1.40 1.33 1.31 1.26 1.19 1.16 1.26 1.36 1.39 1.37 1.30 1.21 1.07 1.03 1.02 0.94 0.83 0.68 0.64 0.73 0.76 0.74 0.69 0.70 0.69 0.70
0.75 0.79 0.83 0.93 1.07 1.27 1.48 1.63 1.65 1.57 1.50 1.54 1.54 1.44 1.39 1.35 1.23 1.15 1.20 1.33 1.40 1.39 1.27 1.11 1.00 1.07 1.24 1.36 1.17 0.85 0.72 0.73 0.84 0.88 0.90 0.95 0.88 0.82
0.85 0.85 0.90 0.99 1.13 1.34 1.52 1.60 1.62 1.58 1.53 1.55 1.53 1.45 1.39 1.36 1.26 1.21 1.21 1.27 1.29 1.30 1.27 1.25 1.36 1.42 1.41 1.37 1.13 0.89 0.82 0.83 0.90 0.97 0.96 0.93 0.90 0.82
0.91 0.88 0.90 0.99 1.15 1.34 1.46 1.57 1.60 1.60 1.58 1.54 1.51 1.44 1.39 1.38 1.36 1.33 1.28 1.29 1.33 1.37 1.49 1.53 1.50 1.48 1.37 1.29 1.21 1.11 1.02 1.02 1.06 1.04 0.90 0.79 0.74 0.72

GEFSNE_prec_meanprecacc_204.txt.gz
Total_Precipitation_Accumulation
1.16 1.28 1.21 1.01 0.98 0.95 1.15 1.42 1.57 1.42 1.29 1.20 1.21 1.23 1.22 1.26 1.41 1.29 1.35 1.36 1.24 1.13 1.04 0.98 0.96 0.93 0.94 1.03 1.11 1.13 1.16 1.24 1.41 1.60 1.81 2.06 2.33 2.60
1.35 1.35 1.26 1.14 1.18 1.03 1.09 1.31 1.52 1.65 1.54 1.16 1.21 1.22 1.30 1.20 1.39 1.29 1.32 1.37 1.23 1.13 1.04 0.99 0.96 0.94 0.93 0.95 1.01 1.09 1.13 1.12 1.17 1.25 1.34 1.45 1.56 1.73
1.57 1.46 1.42 1.40 1.39 1.26 1.27 1.35 1.43 1.62 1.64 1.35 1.29 1.40 1.48 1.41 1.44 1.40 1.32 1.34 1.26 1.21 1.06 0.99 0.95 0.92 0.94 0.93 0.94 0.95 1.00 1.02 1.04 1.07 1.13 1.17 1.17 1.17
1.95 1.99 1.77 1.67 1.63 1.49 1.46 1.41 1.42 1.55 1.64 1.58 1.48 1.54 1.54 1.52 1.50 1.33 1.13 1.08 1.14 1.25 1.17 1.06 1.00 0.94 0.90 0.90 0.91 0.90 0.91 0.93 0.97 0.97 1.00 1.02 1.04 1.03
1.80 1.99 1.98 2.01 1.82 1.74 1.66 1.57 1.52 1.48 1.60 1.59 1.52 1.65 1.68 1.67 1.55 1.26 1.16 1.19 1.07 1.23 1.22 1.04 0.94 0.90 0.86 0.82 0.80 0.82 0.82 0.84 0.88 0.91 0.91 0.87 0.87 0.87
1.61 1.67 1.77 1.99 1.96 1.91 1.80 1.76 1.75 1.74 1.78 1.74 1.69 1.78 1.95 2.00 1.80 1.47 1.33 1.28 1.18 1.04 1.09 0.99 0.93 0.89 0.84 0.79 0.76 0.73 0.75 0.78 0.81 0.82 0.84 0.83 0.81 0.77
1.63 1.56 1.55 1.73 1.80 1.81 1.66 1.70 1.82 1.89 1.92 1.89 1.86 1.92 2.00 2.10 1.83 1.57 1.39 1.33 1.27 1.12 1.02 0.90 0.87 0.85 0.88 0.91 0.87 0.79 0.74 0.75 0.78 0.80 0.80 0.80 0.80 0.80
1.89 1.80 1.68 1.58 1.57 1.61 1.67 1.71 1.75 1.76 1.81 1.85 1.81 1.85 1.93 1.98 2.03 1.84 1.59 1.38 1.27 1.14 1.11 1.00 0.93 0.90 0.82 0.78 0.88 0.84 0.77 0.74 0.73 0.75 0.77 0.79 0.78 0.74
1.85 1.83 1.64 1.49 1.55 1.50 1.65 1.69 1.62 1.56 1.52 1.56 1.61 1.68 1.99 2.19 2.36 2.11 1.85 1.66 1.45 1.30 1.22 1.06 0.98 0.90 0.81 0.79 0.90 0.78 0.71 0.68 0.66 0.66 0.68 0.69 0.72 0.74
1.48 1.59 1.56 1.46 1.45 1.48 1.42 1.30 1.24 1.26 1.24 1.17 1.22 1.41 1.71 2.14 2.37 2.37 2.30 2.07 1.83 1.50 1.26 1.09 0.91 0.85 0.81 0.76 0.85 0.80 0.73 0.69 0.66 0.63 0.58 0.57 0.61 0.66
1.28 1.29 1.30 1.22 1.28 1.27 1.17 1.06 1.00 1.01 1.03 1.03 1.03 1.17 1.39 1.69 2.03 2.19 2.13 1.93 1.65 1.33 1.12 0.98 0.87 0.85 0.81 0.74 0.75 0.85 0.78 0.73 0.72 0.71 0.70 0.67 0.66 0.72
1.29 1.32 1.41 1.25 1.13 0.99 0.94 0.95 0.87 0.83 0.87 0.86 0.86 0.91 1.02 1.24 1.62 1.73 1.72 1.72 1.53 1.29 1.02 0.95 0.87 0.94 0.90 0.77 0.71 0.71 0.72 0.79 0.80 0.79 0.79 0.80 0.84 0.77
1.05 1.06 1.16 1.18 0.99 0.83 0.81 0.80 0.75 0.72 0.74 0.72 0.72 0.76 0.87 1.01 1.18 1.44 1.52 1.45 1.35 1.14 0.94 0.96 0.89 0.89 0.88 0.76 0.69 0.66 0.63 0.62 0.69 0.77 0.84 0.88 0.89 0.84
1.05 1.07 1.17 1.21 0.98 0.83 0.70 0.65 0.61 0.54 0.58 0.66 0.66 0.67 0.75 0.86 1.05 1.27 1.47 1.47 1.34 1.23 1.16 1.14 1.06 0.99 0.92 0.79 0.68 0.62 0.63 0.63 0.66 0.70 0.74 0.91 0.90 0.90
1.12 1.35 1.35 1.27 1.08 0.86 0.77 0.75 0.62 0.53 0.57 0.63 0.65 0.64 0.68 0.81 1.04 1.30 1.49 1.60 1.52 1.35 1.25 1.17 1.12 1.09 1.09 0.92 0.77 0.70 0.71 0.71 0.68 0.69 0.71 0.75 0.78 0.83
1.14 1.33 1.42 1.41 1.27 1.09 0.99 0.90 0.72 0.67 0.71 0.72 0.75 0.79 0.85 0.96 1.11 1.22 1.37 1.50 1.54 1.40 1.25 1.20 1.17 1.21 1.19 1.05 0.92 0.82 0.74 0.73 0.71 0.72 0.75 0.77 0.76 0.77
1.12 1.35 1.49 1.57 1.55 1.48 1.33 1.20 1.05 0.92 0.84 0.85 0.91 0.91 0.93 0.99 1.07 1.20 1.34 1.39 1.35 1.19 1.12 1.12 1.15 1.19 1.19 1.14 0.96 0.75 0.68 0.64 0.63 0.73 0.85 0.86 0.82 0.80
1.02 1.21 1.43 1.60 1.65 1.72 1.68 1.56 1.35 1.17 1.07 1.05 1.03 1.01 1.02 1.00 1.04 1.17 1.33 1.39 1.31 1.17 1.08 1.03 1.13 1.24 1.24 1.09 0.92 0.75 0.66 0.63 0.63 0.72 0.82 0.85 0.74 0.66
0.90 1.03 1.14 1.29 1.45 1.63 1.69 1.66 1.49 1.34 1.34 1.31 1.20 1.16 1.18 1.16 1.14 1.22 1.35 1.42 1.41 1.29 1.20 1.14 1.16 1.20 1.14 0.91 0.69 0.64 0.66 0.63 0.66 0.68 0.70 0.73 0.67 0.60
0.76 0.85 0.94 1.08 1.25 1.50 1.64 1.69 1.63 1.51 1.49 1.49 1.44 1.37 1.35 1.29 1.22 1.18 1.28 1.38 1.41 1.38 1.31 1.22 1.08 1.04 1.03 0.96 0.85 0.70 0.66 0.75 0.79 0.76 0.72 0.74 0.72 0.73
0.81 0.85 0.89 1.01 1.16 1.37 1.58 1.71 1.72 1.63 1.55 1.59 1.58 1.48 1.43 1.38 1.26 1.18 1.23 1.36 1.43 1.41 1.28 1.12 1.01 1.09 1.27 1.39 1.20 0.87 0.74 0.76 0.88 0.91 0.93 0.99 0.91 0.85
0.92 0.92 0.97 1.07 1.21 1.42 1.60 1.68 1.70 1.66 1.60 1.62 1.60 1.50 1.43 1.40 1.28 1.23 1.24 1.29 1.31 1.32 1.29 1.28 1.39 1.45 1.45 1.41 1.15 0.91 0.85 0.86 0.93 1.01 0.99 0.96 0.92 0.84
0.98 0.95 0.98 1.06 1.23 1.41 1.54 1.64 1.66 1.66 1.63 1.60 1.57 1.49 1.44 1.42 1.39 1.35 1.30 1.31 1.35 1.40 1.52 1.56 1.54 1.52 1.41 1.32 1.24 1.13 1.04 1.05 1.09 1.07 0.92 0.81 0.75 0.73

GEFSNE_prec_meanprecacc_210.txt.gz
Total_Precipitation_Accumulation
1.22 1.35 1.27 1.07 1.03 1.01 1.20 1.47 1.62 1.47 1.33 1.23 1.23 1.25 1.24 1.28 1.43 1.31 1.37 1.38 1.26 1.14 1.05 0.98 0.96 0.94 0.95 1.04 1.12 1.16 1.20 1.29 1.46 1.66 1.87 2.13 2.40 2.68
1.41 1.40 1.31 1.18 1.22 1.08 1.13 1.36 1.57 1.69 1.58 1.19 1.24 1.25 1.32 1.21 1.40 1.30 1.34 1.39 1.24 1.14 1.04 0.99 0.96 0.94 0.93 0.96 1.02 1.11 1.15 1.15 1.20 1.29 1.39 1.50 1.60 1.77
1.61 1.50 1.45 1.44 1.43 1.30 1.32 1.39 1.47 1.66 1.67 1.38 1.30 1.43 1.52 1.44 1.46 1.42 1.33 1.35 1.27 1.21 1.06 0.99 0.95 0.92 0.94 0.94 0.95 0.96 1.01 1.03 1.06 1.10 1.17 1.22 1.22 1.23
1.99 2.03 1.82 1.72 1.68 1.53 1.50 1.45 1.47 1.59 1.67 1.61 1.51 1.56 1.58 1.55 1.53 1.35 1.14 1.08 1.14 1.26 1.19 1.07 1.01 0.94 0.91 0.91 0.92 0.91 0.92 0.94 0.99 1.00 1.03 1.07 1.10 1.10
1.85 2.03 2.03 2.06 1.86 1.79 1.70 1.61 1.56 1.51 1.63 1.63 1.55 1.69 1.71 1.71 1.58 1.28 1.18 1.22 1.09 1.25 1.25 1.06 0.96 0.92 0.88 0.84 0.83 0.84 0.84 0.86 0.89 0.92 0.92 0.90 0.90 0.91
1.64 1.70 1.81 2.04 2.00 1.96 1.84 1.81 1.79 1.78 1.82 1.78 1.73 1.81 1.98 2.04 1.83 1.50 1.36 1.32 1.21 1.06 1.13 1.02 0.96 0.93 0.88 0.83 0.79 0.76 0.77 0.79 0.82 0.82 0.85 0.84 0.82 0.79
1.67 1.60 1.58 1.77 1.85 1.86 1.69 1.74 1.87 1.93 1.96 1.93 1.90 1.95 2.03 2.14 1.88 1.61 1.43 1.38 1.34 1.18 1.08 0.95 0.93 0.90 0.93 0.96 0.91 0.82 0.76 0.77 0.79 0.81 0.81 0.80 0.81 0.81
1.91 1.82 1.70 1.61 1.60 1.65 1.70 1.74 1.79 1.80 1.85 1.89 1.85 1.89 1.96 2.02 2.09 1.90 1.66 1.47 1.36 1.23 1.20 1.08 1.00 0.97 0.89 0.82 0.91 0.87 0.80 0.76 0.74 0.76 0.78 0.80 0.79 0.75
1.87 1.85 1.65 1.51 1.58 1.54 1.69 1.72 1.64 1.59 1.55 1.60 1.65 1.72 2.05 2.25 2.42 2.16 1.90 1.72 1.51 1.36 1.28 1.14 1.05 0.97 0.86 0.82 0.92 0.80 0.74 0.70 0.67 0.67 0.69 0.71 0.74 0.76
1.50 1.61 1.58 1.49 1.49 1.53 1.47 1.33 1.26 1.28 1.27 1.19 1.25 1.46 1.76 2.19 2.42 2.42 2.33 2.10 1.85 1.52 1.30 1.12 0.94 0.88 0.84 0.79 0.87 0.82 0.75 0.71 0.67 0.64 0.60 0.59 0.62 0.67
1.31 1.31 1.32 1.24 1.31 1.32 1.22 1.10 1.03 1.03 1.05 1.06 1.06 1.21 1.44 1.73 2.07 2.22 2.15 1.95 1.67 1.34 1.13 1.00 0.89 0.87 0.82 0.76 0.77 0.87 0.80 0.75 0.73 0.72 0.71 0.68 0.67 0.73
1.32 1.35 1.44 1.27 1.16 1.03 0.97 0.98 0.89 0.86 0.90 0.88 0.88 0.94 1.05 1.27 1.65 1.76 1.75 1.75 1.56 1.32 1.04 0.97 0.88 0.96 0.91 0.79 0.72 0.73 0.74 0.81 0.82 0.81 0.80 0.81 0.85 0.78
1.08 1.08 1.19 1.20 1.01 0.86 0.84 0.83 0.78 0.75 0.77 0.75 0.74 0.78 0.89 1.03 1.20 1.46 1.55 1.48 1.39 1.17 0.97 0.99 0.92 0.91 0.90 0.78 0.70 0.67 0.64 0.64 0.70 0.78 0.86 0.89 0.90 0.84
1.08 1.10 1.20 1.24 1.02 0.87 0.74 0.68 0.65 0.59 0.62 0.70 0.70 0.69 0.76 0.88 1.07 1.29 1.49 1.49 1.37 1.26 1.18 1.16 1.09 1.02 0.94 0.81 0.69 0.63 0.64 0.64 0.68 0.72 0.76 0.93 0.92 0.92
1.15 1.39 1.39 1.33 1.14 0.92 0.84 0.82 0.70 0.59 0.63 0.68 0.70 0.67 0.70 0.82 1.06 1.31 1.50 1.62 1.54 1.37 1.26 1.18 1.14 1.11 1.11 0.94 0.78 0.71 0.72 0.72 0.69 0.70 0.73 0.77 0.80 0.85
1.19 1.38 1.47 1.48 1.36 1.19 1.10 1.01 0.81 0.74 0.79 0.80 0.82 0.85 0.89 0.98 1.13 1.23 1.38 1.52 1.56 1.41 1.26 1.20 1.17 1.22 1.20 1.07 0.94 0.84 0.76 0.75 0.72 0.74 0.78 0.79 0.79 0.79
1.17 1.40 1.55 1.64 1.63 1.56 1.42 1.31 1.16 1.02 0.92 0.91 0.97 0.97 0.98 1.04 1.09 1.22 1.37 1.41 1.37 1.21 1.13 1.13 1.17 1.21 1.21 1.15 0.98 0.77 0.70 0.66 0.65 0.76 0.88 0.89 0.84 0.82
1.07 1.25 1.49 1.66 1.72 1.80 1.77 1.66 1.47 1.29 1.18 1.14 1.11 1.08 1.08 1.06 1.08 1.20 1.36 1.42 1.33 1.19 1.10 1.05 1.15 1.26 1.25 1.10 0.92 0.75 0.66 0.64 0.65 0.74 0.84 0.87 0.76 0.68
0.94 1.06 1.18 1.34 1.51 1.70 1.77 1.75 1.59 1.46 1.47 1.42 1.30 1.24 1.25 1.24 1.21 1.27 1.39 1.46 1.44 1.32 1.23 1.17 1.19 1.22 1.15 0.92 0.70 0.65 0.67 0.64 0.67 0.69 0.71 0.75 0.70 0.63
0.82 0.91 1.00 1.13 1.31 1.56 1.71 1.77 1.72 1.62 1.60 1.61 1.55 1.46 1.43 1.37 1.29 1.24 1.32 1.40 1.44 1.41 1.34 1.24 1.10 1.06 1.05 0.98 0.87 0.72 0.68 0.77 0.81 0.79 0.75 0.77 0.77 0.79
0.85 0.88 0.93 1.05 1.21 1.42 1.64 1.79 1.80 1.71 1.63 1.67 1.65 1.55 1.49 1.43 1.30 1.21 1.26 1.40 1.46 1.44 1.30 1.14 1.04 1.13 1.29 1.42 1.23 0.89 0.76 0.77 0.90 0.93 0.95 1.01 0.94 0.89
0.95 0.95 1.01 1.12 1.26 1.47 1.65 1.73 1.75 1.72 1.67 1.68 1.66 1.57 1.50 1.46 1.33 1.27 1.27 1.32 1.35 1.35 1.32 1.31 1.42 1.49 1.48 1.43 1.18 0.94 0.87 0.88 0.95 1.02 1.01 0.98 0.94 0.86
1.01 0.99 1.02 1.11 1.28 1.47 1.59 1.69 1.71 1.71 1.70 1.66 1.63 1.56 1.50 1.48 1.44 1.40 1.34 1.34 1.38 1.42 1.54 1.58 1.57 1.55 1.44 1.35 1.28 1.17 1.09 1.09 1.12 1.10 0.96 0.85 0.79 0.77

GEFSNE_prec_meanprecacc_216.txt.gz
Total_Precipitation_Accumulation
1.29 1.42 1.33 1.12 1.08 1.06 1.27 1.55 1.71 1.56 1.42 1.29 1.26 1.27 1.27 1.32 1.45 1.35 1.39 1.40 1.28 1.16 1.06 0.99 0.98 0.95 0.96 1.05 1.14 1.17 1.21 1.30 1.48 1.68 1.90 2.16 2.45 2.72
1.48 1.47 1.38 1.22 1.27 1.12 1.18 1.42 1.64 1.77 1.65 1.23 1.28 1.27 1.34 1.24 1.43 1.34 1.36 1.41 1.26 1.16 1.05 1.00 0.97 0.95 0.94 0.97 1.03 1.11 1.15 1.15 1.21 1.30 1.40 1.52 1.63 1.81
1.67 1.57 1.51 1.50 1.49 1.35 1.38 1.46 1.54 1.73 1.74 1.42 1.36 1.48 1.56 1.48 1.50 1.45 1.35 1.37 1.28 1.23 1.07 1.00 0.96 0.93 0.95 0.94 0.96 0.96 1.01 1.03 1.06 1.11 1.18 1.24 1.25 1.27
2.05 2.09 1.88 1.79 1.74 1.58 1.56 1.54 1.55 1.68 1.75 1.68 1.59 1.65 1.66 1.61 1.58 1.39 1.16 1.10 1.16 1.27 1.20 1.08 1.02 0.95 0.92 0.91 0.93 0.92 0.92 0.95 0.99 1.00 1.04 1.08 1.11 1.12
1.90 2.08 2.09 2.14 1.92 1.84 1.75 1.67 1.63 1.58 1.72 1.69 1.61 1.77 1.81 1.78 1.65 1.33 1.21 1.25 1.11 1.27 1.27 1.08 0.96 0.93 0.89 0.85 0.84 0.85 0.85 0.87 0.90 0.93 0.93 0.91 0.91 0.93
1.69 1.75 1.87 2.10 2.07 2.03 1.90 1.88 1.87 1.86 1.90 1.84 1.78 1.88 2.06 2.11 1.91 1.55 1.41 1.37 1.24 1.09 1.16 1.04 0.98 0.94 0.90 0.84 0.80 0.78 0.78 0.81 0.84 0.84 0.86 0.86 0.83 0.80
1.73 1.67 1.65 1.85 1.93 1.93 1.75 1.81 1.94 2.00 2.02 1.99 1.96 2.02 2.09 2.20 1.93 1.67 1.48 1.44 1.40 1.23 1.14 0.99 0.96 0.92 0.95 0.98 0.93 0.84 0.80 0.80 0.82 0.84 0.84 0.82 0.82 0.82
1.98 1.90 1.77 1.68 1.68 1.72 1.76 1.80 1.85 1.86 1.91 1.94 1.91 1.94 2.02 2.09 2.16 1.97 1.73 1.55 1.44 1.29 1.27 1.14 1.06 1.01 0.93 0.86 0.95 0.91 0.84 0.81 0.79 0.80 0.81 0.81 0.80 0.77
1.94 1.92 1.71 1.57 1.66 1.61 1.75 1.77 1.67 1.61 1.58 1.65 1.71 1.78 2.12 2.32 2.50 2.23 1.98 1.80 1.59 1.43 1.37 1.20 1.09 1.02 0.90 0.87 0.97 0.85 0.80 0.76 0.72 0.70 0.70 0.71 0.75 0.77
1.55 1.67 1.64 1.57 1.56 1.59 1.53 1.39 1.30 1.31 1.30 1.22 1.28 1.50 1.82 2.25 2.48 2.48 2.41 2.18 1.93 1.59 1.36 1.17 0.98 0.92 0.88 0.84 0.93 0.87 0.80 0.76 0.70 0.65 0.60 0.59 0.63 0.68
1.34 1.35 1.37 1.30 1.38 1.38 1.30 1.17 1.08 1.07 1.09 1.10 1.09 1.23 1.47 1.76 2.11 2.27 2.22 2.01 1.71 1.38 1.18 1.04 0.92 0.90 0.86 0.81 0.82 0.93 0.85 0.79 0.76 0.74 0.72 0.68 0.68 0.73
1.36 1.39 1.48 1.32 1.22 1.09 1.03 1.04 0.94 0.90 0.96 0.94 0.91 0.97 1.07 1.29 1.67 1.80 1.81 1.81 1.61 1.36 1.09 1.02 0.92 1.00 0.95 0.83 0.75 0.76 0.77 0.83 0.85 0.83 0.82 0.82 0.85 0.78
1.12 1.13 1.24 1.26 1.06 0.90 0.88 0.87 0.82 0.82 0.87 0.83 0.79 0.81 0.91 1.05 1.22 1.49 1.59 1.54 1.45 1.22 1.02 1.05 0.96 0.95 0.94 0.81 0.73 0.69 0.67 0.66 0.72 0.81 0.89 0.91 0.91 0.85
1.12 1.15 1.26 1.31 1.08 0.93 0.79 0.72 0.71 0.65 0.68 0.77 0.76 0.75 0.81 0.92 1.11 1.33 1.52 1.53 1.41 1.30 1.22 1.21 1.12 1.04 0.97 0.84 0.71 0.64 0.66 0.66 0.69 0.74 0.79 0.96 0.94 0.93
1.18 1.42 1.44 1.39 1.20 0.97 0.88 0.87 0.76 0.64 0.69 0.73 0.74 0.71 0.74 0.87 1.11 1.38 1.56 1.67 1.58 1.41 1.31 1.23 1.18 1.15 1.14 0.97 0.81 0.73 0.73 0.74 0.71 0.71 0.75 0.79 0.82 0.87
1.20 1.40 1.51 1.52 1.40 1.23 1.14 1.05 0.85 0.78 0.84 0.84 0.86 0.91 0.97 1.05 1.20 1.30 1.46 1.59 1.61 1.46 1.30 1.25 1.22 1.26 1.23 1.09 0.97 0.86 0.78 0.78 0.75 0.77 0.81 0.82 0.81 0.81
1.19 1.42 1.57 1.67 1.66 1.59 1.46 1.34 1.19 1.05 0.96 0.95 1.01 1.01 1.04 1.11 1.17 1.29 1.44 1.49 1.44 1.27 1.19 1.19 1.22 1.26 1.26 1.20 1.02 0.80 0.74 0.71 0.70 0.81 0.92 0.92 0.87 0.84
1.10 1.27 1.52 1.71 1.77 1.84 1.81 1.69 1.50 1.32 1.21 1.17 1.14 1.12 1.14 1.12 1.16 1.30 1.47 1.53 1.42 1.28 1.18 1.13 1.23 1.33 1.32 1.16 0.96 0.79 0.70 0.67 0.69 0.79 0.88 0.90 0.79 0.70
0.96 1.08 1.22 1.38 1.56 1.74 1.81 1.78 1.62 1.49 1.50 1.46 1.35 1.29 1.32 1.33 1.32 1.39 1.51 1.60 1.59 1.46 1.35 1.28 1.29 1.30 1.21 0.96 0.73 0.68 0.70 0.67 0.71 0.73 0.75 0.78 0.72 0.65
0.84 0.93 1.03 1.17 1.35 1.60 1.75 1.80 1.76 1.66 1.64 1.65 1.59 1.52 1.50 1.47 1.41 1.38 1.48 1.56 1.59 1.55 1.47 1.34 1.18 1.12 1.09 1.01 0.90 0.74 0.70 0.80 0.85 0.83 0.79 0.81 0.81 0.82
0.86 0.90 0.95 1.08 1.23 1.45 1.67 1.82 1.84 1.75 1.66 1.70 1.70 1.60 1.56 1.52 1.40 1.31 1.37 1.53 1.59 1.56 1.41 1.23 1.10 1.20 1.36 1.48 1.28 0.93 0.79 0.81 0.93 0.97 0.99 1.05 0.97 0.92
0.97 0.98 1.05 1.15 1.29 1.50 1.68 1.75 1.77 1.75 1.70 1.72 1.70 1.61 1.55 1.51 1.39 1.33 1.34 1.39 1.42 1.43 1.41 1.40 1.53 1.60 1.56 1.50 1.24 0.99 0.91 0.92 0.99 1.07 1.06 1.03 0.97 0.89
1.04 1.02 1.05 1.14 1.31 1.50 1.62 1.72 1.73 1.74 1.72 1.69 1.67 1.60 1.54 1.53 1.49 1.45 1.40 1.40 1.44 1.49 1.61 1.66 1.65 1.65 1.55 1.46 1.37 1.24 1.15 1.14 1.17 1.14 0.99 0.89 0.84 0.81

GEFSNE_prec_meanprecacc_222.txt.gz
Total_Precipitation_Accumulation
1.33 1.46 1.35 1.14 1.11 1.09 1.32 1.60 1.75 1.59 1.44 1.31 1.29 1.30 1.30 1.36 1.51 1.40 1.43 1.42 1.29 1.18 1.09 1.02 1.00 0.97 0.98 1.06 1.15 1.18 1.22 1.32 1.49 1.70 1.93 2.20 2.49 2.78
1.52 1.52 1.41 1.26 1.31 1.16 1.22 1.46 1.68 1.83 1.69 1.25 1.30 1.31 1.39 1.30 1.49 1.38 1.39 1.43 1.28 1.17 1.07 1.02 0.99 0.96 0.96 0.98 1.04 1.12 1.16 1.16 1.22 1.31 1.41 1.53 1.65 1.84
1.71 1.61 1.55 1.55 1.54 1.40 1.42 1.50 1.58 1.79 1.79 1.45 1.39 1.54 1.64 1.54 1.56 1.50 1.38 1.39 1.30 1.24 1.08 1.02 0.97 0.94 0.97 0.96 0.97 0.98 1.02 1.04 1.07 1.12 1.18 1.24 1.26 1.28
2.08 2.13 1.92 1.84 1.78 1.62 1.60 1.58 1.60 1.73 1.80 1.71 1.63 1.71 1.74 1.66 1.62 1.44 1.20 1.13 1.18 1.30 1.22 1.10 1.03 0.96 0.93 0.93 0.94 0.93 0.93 0.96 1.00 1.02 1.05 1.09 1.12 1.13
1.94 2.12 2.13 2.20 1.96 1.89 1.80 1.73 1.69 1.65 1.79 1.75 1.65 1.82 1.86 1.83 1.70 1.39 1.25 1.27 1.14 1.31 1.31 1.12 1.00 0.96 0.91 0.87 0.85 0.85 0.86 0.88 0.91 0.94 0.94 0.92 0.93 0.94
1.73 1.78 1.91 2.15 2.12 2.10 1.97 1.95 1.95 1.94 1.97 1.90 1.82 1.92 2.10 2.15 1.97 1.62 1.45 1.39 1.27 1.13 1.21 1.10 1.04 0.99 0.93 0.87 0.83 0.79 0.79 0.82 0.85 0.86 0.88 0.87 0.86 0.83
1.75 1.69 1.68 1.89 1.99 2.00 1.81 1.87 2.01 2.06 2.09 2.06 2.01 2.06 2.13 2.23 1.98 1.72 1.53 1.49 1.43 1.27 1.18 1.04 1.01 0.97 0.99 1.01 0.96 0.87 0.81 0.81 0.83 0.85 0.85 0.85 0.85 0.86
2.00 1.93 1.80 1.73 1.73 1.77 1.81 1.84 1.90 1.91 1.94 1.98 1.95 1.99 2.06 2.13 2.21 2.03 1.78 1.61 1.47 1.32 1.32 1.19 1.11 1.06 0.97 0.89 0.98 0.94 0.86 0.82 0.80 0.82 0.83 0.85 0.84 0.81
1.96 1.95 1.73 1.60 1.70 1.64 1.78 1.81 1.71 1.65 1.62 1.69 1.74 1.81 2.16 2.37 2.56 2.29 2.03 1.84 1.62 1.47 1.42 1.25 1.15 1.05 0.94 0.90 1.01 0.89 0.82 0.79 0.75 0.74 0.76 0.78 0.81 0.83
1.59 1.71 1.68 1.60 1.59 1.63 1.57 1.41 1.33 1.34 1.34 1.26 1.31 1.53 1.86 2.30 2.53 2.53 2.46 2.22 1.97 1.62 1.40 1.22 1.04 0.97 0.92 0.89 0.98 0.93 0.85 0.80 0.75 0.71 0.67 0.67 0.72 0.76
1.40 1.40 1.41 1.33 1.42 1.42 1.34 1.20 1.12 1.11 1.14 1.14 1.13 1.27 1.51 1.80 2.16 2.32 2.25 2.04 1.74 1.41 1.21 1.09 0.97 0.97 0.92 0.86 0.87 0.98 0.90 0.83 0.80 0.77 0.75 0.72 0.73 0.80
1.41 1.43 1.52 1.36 1.27 1.14 1.08 1.09 0.98 0.94 1.02 1.00 0.98 1.03 1.13 1.35 1.72 1.84 1.84 1.83 1.64 1.39 1.11 1.05 0.96 1.05 1.01 0.88 0.79 0.80 0.81 0.86 0.88 0.86 0.84 0.84 0.88 0.81
1.16 1.16 1.28 1.30 1.10 0.95 0.93 0.92 0.87 0.87 0.93 0.89 0.85 0.86 0.96 1.10 1.27 1.53 1.63 1.58 1.47 1.24 1.04 1.08 0.99 0.98 0.97 0.84 0.76 0.72 0.69 0.69 0.75 0.84 0.92 0.94 0.94 0.88
1.14 1.17 1.29 1.34 1.11 0.96 0.84 0.76 0.75 0.69 0.73 0.81 0.79 0.78 0.84 0.95 1.15 1.38 1.58 1.59 1.45 1.33 1.27 1.26 1.16 1.08 1.00 0.87 0.75 0.67 0.69 0.71 0.73 0.78 0.82 1.01 0.99 0.98
1.20 1.44 1.46 1.41 1.23 1.00 0.91 0.90 0.80 0.68 0.72 0.76 0.77 0.74 0.77 0.90 1.14 1.41 1.60 1.73 1.63 1.45 1.35 1.28 1.24 1.21 1.20 1.03 0.86 0.79 0.79 0.77 0.73 0.74 0.77 0.82 0.87 0.94
1.22 1.41 1.52 1.54 1.42 1.25 1.16 1.07 0.87 0.80 0.86 0.87 0.89 0.94 1.01 1.09 1.23 1.35 1.51 1.64 1.66 1.50 1.35 1.30 1.29 1.34 1.32 1.19 1.05 0.91 0.83 0.82 0.79 0.81 0.87 0.89 0.90 0.89
1.22 1.44 1.60 1.69 1.68 1.61 1.47 1.36 1.21 1.07 0.97 0.97 1.03 1.04 1.08 1.16 1.21 1.34 1.50 1.57 1.50 1.30 1.23 1.27 1.32 1.37 1.37 1.30 1.09 0.86 0.79 0.76 0.76 0.87 0.96 0.96 0.91 0.87
1.15 1.32 1.55 1.74 1.80 1.87 1.83 1.71 1.51 1.33 1.23 1.19 1.16 1.15 1.17 1.17 1.21 1.36 1.53 1.60 1.48 1.34 1.24 1.20 1.33 1.44 1.43 1.27 1.05 0.86 0.77 0.73 0.74 0.83 0.90 0.92 0.81 0.73
1.04 1.16 1.28 1.42 1.60 1.78 1.84 1.81 1.64 1.52 1.54 1.50 1.38 1.33 1.36 1.38 1.38 1.45 1.58 1.66 1.64 1.52 1.41 1.36 1.38 1.40 1.31 1.05 0.82 0.76 0.77 0.73 0.76 0.78 0.79 0.81 0.75 0.68
0.87 0.99 1.11 1.23 1.38 1.63 1.78 1.84 1.80 1.71 1.68 1.68 1.63 1.56 1.53 1.50 1.45 1.42 1.52 1.61 1.64 1.61 1.53 1.42 1.27 1.23 1.20 1.10 0.98 0.83 0.78 0.87 0.90 0.88 0.84 0.86 0.85 0.86
0.88 0.93 0.98 1.11 1.26 1.48 1.70 1.84 1.86 1.77 1.68 1.72 1.72 1.63 1.58 1.54 1.42 1.34 1.41 1.57 1.65 1.62 1.47 1.27 1.16 1.29 1.45 1.57 1.38 1.01 0.86 0.88 1.00 1.03 1.05 1.12 1.03 0.97
0.99 1.01 1.08 1.19 1.33 1.55 1.73 1.80 1.81 1.78 1.73 1.74 1.71 1.62 1.57 1.54 1.42 1.36 1.38 1.44 1.46 1.47 1.44 1.43 1.58 1.66 1.64 1.58 1.32 1.07 0.99 0.99 1.06 1.14 1.14 1.10 1.03 0.93
1.08 1.06 1.10 1.19 1.37 1.57 1.69 1.78 1.78 1.77 1.75 1.72 1.68 1.61 1.57 1.56 1.52 1.49 1.44 1.44 1.48 1.51 1.64 1.69 1.69 1.70 1.61 1.53 1.45 1.33 1.23 1.22 1.25 1.22 1.07 0.96 0.90 0.87